Back to catalog

STARLINK-35882

AliveCommunicationsVLEO
NORAD 67088·PAYLOAD·🇺🇸 United States

Launched Dec 14, 2025 from Vandenberg Space Force Base

Loading…

Next Passes (next 24 hours)

TLE

FreshSource: CelesTrak SupGP

Epoch: Sep 14, 2026, 15:58 UTC

1 67088C 25298P   26257.66576389 -.00048195  00000+0 -40396-2 0  2576
2 67088  69.9993 258.1501 0003938 268.7859 312.4696 14.98345199    11

Track STARLINK-35882 in real time with AllMySat

Download on the App Store